HAZ3858 ZBOW-ZGGG

Flight info

Callsign HAZ3858
Flight time N/A
Altitude 35100
Route ALGOV W193 HDS W104 LEBOM B215 OMKAK/K0841S1130 B215 GODON W87 AGVUR B208 SQ/K0856S1100 W45 LYA/K0848S1130 W45 ML/K0857S1100 W45 NUPTI/K0854S1130 W45 VESUX/K0850S1160 W45 IKAVO IKAVO8
Aircraft A320/M-SDE3FGHIRWY/LB1

Departure

Time N/A
Airport Baotou Donghe International Airport (ZBOW)

Arrival

Time 2026-05-01 08:21
Airport Guangzhou Baiyun International Airport (ZGGG)
Time Latitude Longitude Altitude Speed Heading
2026-05-01 07:23 29.22625 111.64147 37082 ft 470 kts 189°
2026-05-01 07:24 29.12845 111.63638 37079 ft 469 kts 189°
2026-05-01 07:24 29.06330 111.63294 37080 ft 469 kts 189°
2026-05-01 07:25 28.99778 111.62949 37078 ft 470 kts 189°
2026-05-01 07:25 28.93247 111.62605 37080 ft 469 kts 189°
2026-05-01 07:26 28.86725 111.62261 37086 ft 470 kts 189°
2026-05-01 07:26 28.80266 111.61671 37088 ft 467 kts 192°
2026-05-01 07:27 28.73767 111.60964 37089 ft 467 kts 192°
2026-05-01 07:27 28.67304 111.60262 37090 ft 468 kts 192°
2026-05-01 07:28 28.60826 111.59560 37092 ft 467 kts 192°
2026-05-01 07:28 28.54344 111.58859 37094 ft 467 kts 192°
2026-05-01 07:29 28.47882 111.58162 37097 ft 468 kts 192°
2026-05-01 07:29 28.41394 111.57463 37105 ft 468 kts 192°
2026-05-01 07:30 28.34914 111.56775 37114 ft 468 kts 191°
2026-05-01 07:30 28.28415 111.56088 37115 ft 469 kts 192°
2026-05-01 07:31 28.21947 111.55405 37119 ft 468 kts 192°
2026-05-01 07:32 28.05686 111.53689 37126 ft 469 kts 192°
2026-05-01 07:33 27.95973 111.52666 37131 ft 468 kts 191°
2026-05-01 07:33 27.86237 111.51644 37129 ft 469 kts 191°
2026-05-01 07:34 27.76497 111.50624 37127 ft 469 kts 191°
2026-05-01 07:35 27.69990 111.49945 37129 ft 469 kts 191°
2026-05-01 07:35 27.63480 111.49265 37127 ft 470 kts 191°
2026-05-01 07:36 27.56984 111.48589 37127 ft 469 kts 191°
2026-05-01 07:36 27.50500 111.47913 37125 ft 470 kts 191°
2026-05-01 07:37 27.40729 111.46896 37125 ft 470 kts 191°
2026-05-01 07:37 27.34219 111.46221 37122 ft 470 kts 191°
2026-05-01 07:38 27.27707 111.45545 37121 ft 470 kts 191°
2026-05-01 07:39 27.17932 111.44534 37119 ft 469 kts 191°
2026-05-01 07:39 27.08176 111.43523 37121 ft 470 kts 191°
2026-05-01 07:40 27.01653 111.42978 37115 ft 475 kts 184°
2026-05-01 07:40 26.95042 111.44146 37121 ft 487 kts 167°
2026-05-01 07:41 26.88931 111.47527 37123 ft 496 kts 148°
2026-05-01 07:41 26.83926 111.52899 37128 ft 503 kts 130°
2026-05-01 07:42 26.81811 111.55948 37126 ft 503 kts 129°
2026-05-01 07:42 26.77575 111.62209 37126 ft 503 kts 129°
2026-05-01 07:43 26.73343 111.68391 37125 ft 502 kts 129°
2026-05-01 07:43 26.66912 111.77681 37121 ft 504 kts 130°
2026-05-01 07:44 26.58340 111.89993 37128 ft 503 kts 129°
2026-05-01 07:45 26.54060 111.96130 37134 ft 503 kts 129°
2026-05-01 07:45 26.49750 112.02306 37136 ft 504 kts 129°
2026-05-01 07:46 26.45448 112.08459 37139 ft 503 kts 129°
2026-05-01 07:47 26.39008 112.17651 37136 ft 502 kts 129°
2026-05-01 07:47 26.34719 112.23766 37136 ft 503 kts 129°
2026-05-01 07:48 26.28264 112.32948 37138 ft 503 kts 129°
2026-05-01 07:48 26.23944 112.39085 37146 ft 503 kts 129°
2026-05-01 07:49 26.17485 112.48246 37143 ft 503 kts 129°
2026-05-01 07:50 26.13158 112.54371 37140 ft 503 kts 129°
2026-05-01 07:50 26.06703 112.63496 37141 ft 503 kts 129°
2026-05-01 07:51 26.02359 112.69627 37133 ft 503 kts 129°
2026-05-01 07:52 25.95874 112.78765 37131 ft 503 kts 129°
2026-05-01 07:52 25.91574 112.84817 37130 ft 502 kts 130°
2026-05-01 07:53 25.85075 112.93945 37124 ft 503 kts 129°
2026-05-01 07:53 25.80431 112.99734 37123 ft 500 kts 142°
2026-05-01 07:54 25.74636 113.03794 37135 ft 491 kts 160°
2026-05-01 07:55 25.64778 113.05960 37152 ft 476 kts 185°
2026-05-01 07:56 25.48257 113.05449 37151 ft 475 kts 186°
2026-05-01 07:57 25.38309 113.05184 37150 ft 475 kts 186°
2026-05-01 07:58 25.25076 113.04851 37147 ft 475 kts 186°
2026-05-01 07:59 25.11983 113.04523 35762 ft 468 kts 186°
2026-05-01 07:59 25.05444 113.04350 33688 ft 475 kts 185°
2026-05-01 08:00 24.92123 113.04020 29548 ft 486 kts 184°
2026-05-01 08:01 24.82095 113.03778 27381 ft 468 kts 184°
2026-05-01 08:01 24.78869 113.03700 26808 ft 460 kts 184°
2026-05-01 08:01 24.75709 113.03622 26245 ft 453 kts 184°
2026-05-01 08:02 24.69466 113.03468 25117 ft 440 kts 184°
2026-05-01 08:02 24.66461 113.03392 24567 ft 434 kts 184°
2026-05-01 08:03 24.60486 113.03243 23468 ft 423 kts 183°
2026-05-01 08:03 24.57551 113.03172 22925 ft 419 kts 183°
2026-05-01 08:03 24.51760 113.03028 21860 ft 411 kts 184°
2026-05-01 08:04 24.46125 113.03181 20777 ft 406 kts 176°
2026-05-01 08:04 24.40588 113.04370 19683 ft 403 kts 168°
2026-05-01 08:05 24.35117 113.05589 18542 ft 397 kts 172°
2026-05-01 08:05 24.32402 113.06117 17982 ft 394 kts 172°
2026-05-01 08:05 24.29712 113.06635 17434 ft 391 kts 172°
2026-05-01 08:06 24.24411 113.07653 16316 ft 387 kts 173°
2026-05-01 08:06 24.19138 113.08664 15231 ft 383 kts 173°
2026-05-01 08:07 24.13921 113.09662 14127 ft 379 kts 173°
2026-05-01 08:07 24.08732 113.10657 13026 ft 374 kts 173°
2026-05-01 08:08 24.06199 113.11143 12592 ft 367 kts 173°
2026-05-01 08:08 24.01335 113.12080 12145 ft 340 kts 173°
2026-05-01 08:09 23.96835 113.12946 11768 ft 317 kts 173°
2026-05-01 08:09 23.94705 113.13354 11607 ft 305 kts 173°
2026-05-01 08:09 23.92639 113.13750 11465 ft 300 kts 173°
2026-05-01 08:10 23.88515 113.14535 11205 ft 299 kts 173°
2026-05-01 08:10 23.84540 113.15943 10837 ft 307 kts 141°
2026-05-01 08:11 23.83024 113.20155 10167 ft 311 kts 93°
2026-05-01 08:11 23.82588 113.24841 9468 ft 307 kts 101°
2026-05-01 08:12 23.81684 113.29345 8793 ft 302 kts 105°
2026-05-01 08:12 23.81173 113.31583 8448 ft 299 kts 105°
2026-05-01 08:12 23.80170 113.35930 7780 ft 293 kts 105°
2026-05-01 08:13 23.79673 113.38088 7462 ft 290 kts 105°
2026-05-01 08:13 23.79143 113.40163 7199 ft 283 kts 114°
2026-05-01 08:13 23.76183 113.42500 6461 ft 273 kts 181°
2026-05-01 08:14 23.74383 113.41999 6171 ft 271 kts 207°
2026-05-01 08:14 23.72751 113.40956 5880 ft 270 kts 210°
2026-05-01 08:14 23.71047 113.40073 5515 ft 269 kts 200°
2026-05-01 08:14 23.69569 113.39568 5233 ft 268 kts 195°
2026-05-01 08:15 23.67486 113.38992 4873 ft 267 kts 193°
2026-05-01 08:15 23.63873 113.38044 4305 ft 263 kts 193°
2026-05-01 08:15 23.62121 113.37576 4047 ft 258 kts 193°
2026-05-01 08:16 23.60395 113.37111 3816 ft 252 kts 193°
2026-05-01 08:16 23.58706 113.36653 3519 ft 244 kts 193°
2026-05-01 08:16 23.57098 113.36217 3295 ft 230 kts 193°
2026-05-01 08:16 23.55568 113.35802 3005 ft 224 kts 192°
2026-05-01 08:17 23.54055 113.35393 2720 ft 223 kts 192°
2026-05-01 08:17 23.52589 113.34995 2428 ft 210 kts 192°
2026-05-01 08:17 23.51218 113.34624 2182 ft 197 kts 193°
2026-05-01 08:17 23.49928 113.34275 1993 ft 187 kts 192°
2026-05-01 08:18 23.48691 113.33942 1747 ft 177 kts 192°
2026-05-01 08:18 23.46415 113.33326 1272 ft 166 kts 192°
2026-05-01 08:19 23.44307 113.32755 834 ft 142 kts 192°
2026-05-01 08:19 23.43372 113.32503 655 ft 135 kts 192°
2026-05-01 08:19 23.42456 113.32254 499 ft 136 kts 193°
2026-05-01 08:19 23.41527 113.32003 321 ft 136 kts 192°
2026-05-01 08:20 23.40617 113.31750 156 ft 134 kts 192°
2026-05-01 08:20 23.39712 113.31515 51 ft 121 kts 193°
2026-05-01 08:20 23.39063 113.31342 51 ft 70 kts 192°
2026-05-01 08:20 23.38660 113.31240 51 ft 52 kts 182°
2026-05-01 08:21 23.38373 113.31286 51 ft 38 kts 165°
2026-05-01 08:21 23.38189 113.31304 51 ft 18 kts 195°
2026-05-01 08:21 23.38063 113.31271 51 ft 18 kts 194°
2026-05-01 08:21 23.37934 113.31238 51 ft 19 kts 193°
2026-05-01 08:22 23.37811 113.31216 51 ft 16 kts 151°
2026-05-01 08:22 23.37779 113.31316 51 ft 16 kts 104°
2026-05-01 08:22 23.37760 113.31403 51 ft 7 kts 95°
2026-05-01 08:22 23.37795 113.31440 51 ft 8 kts
2026-05-01 08:23 23.37829 113.31448 51 ft 0 kts 13°